{"data":{"norad_id":62428,"intl_designator":"2024-249V","name":"STARLINK-32614","alt_names":[],"object_type":"PAYLOAD","status":"ACTIVE","operator":null,"country":"US","launch_date":"2024-12-23","launch_site_code":"AFETR","launch_vehicle":null,"mission":null,"orbit_class":"UNKNOWN","rcs_meters":null,"size_class":null,"mass_kg":null,"dimensions":null,"purposes":["comms"],"wikipedia_slug":null,"has_3d_model":false,"image_url":null,"decayed_at":null,"tle_current":{"epoch":"2026-09-21T12:47:07.849536Z","epoch_age_seconds":85463,"freshness":"FRESH","line1":"1 62428U 24249V   26264.53272974  .00008389  00000+0  31391-3 0  9999","line2":"2 62428  43.0019 295.9819 0001425 278.8939  81.1751 15.27591141 97670","mean_motion":15.27591141,"eccentricity":0.0001425,"inclination_deg":43.0019,"raan_deg":295.9819,"arg_perigee_deg":278.8939,"mean_anomaly_deg":81.1751,"bstar":0.00031391,"rev_number":9767,"period_min":94.26606120911,"perigee_km":482.03802181556,"apogee_km":483.99345034534,"semimajor_km":6861.1527360805,"source":"CELESTRAK","updated_at":"2026-09-22T09:00:49.579238Z"}}}